Location: Observatory
(52.1446°N, 0.4624°W)
Time: 11:41:07
(UTC+01:00)

ISS - Pass Details

Date: 26 March 2019
Orbit: 408 x 410 km, 51.6° (Epoch: 25 April)

Event Time Altitude Azimuth Distance (km) Brightness Sun altitude
Rises 21:33:17 0° 274° (W) 2,337 0.7 -26.5°
Reaches altitude 10° 21:35:23 10° 273° (W) 1,475 -0.4 -26.8°
Enters shadow 21:36:05 15° 272° (W) 1,190 -1.0 -26.8°
